Flag for U.S.A. Weather past 2 weeks in Charleston, South Carolina, U.S.A.

Now
68 °F

Overcast.


Feels Like: 68 °F
Forecast: 64 / 74 °F
Wind: 10 mph from Northeast

Location: Charleston Air Force Base Reporting Station

Current Time: Sep 23, 2014 at 3:28:31 AM

Latest Report: Sep 23, 2014 at 2:56 AM


Visibility: 10 mi

Pressure: 30.06 "Hg

Humidity: 84%

Dew point: 63 °F

Location of CharlestonLocation

Historic Weather in Charleston — Graph

°F

Charleston temperature yesterday

Maximum temperature yesterday: 88 °F (at 2:56 PM)
Minimum temperature yesterday: 69 °F (at 5:56 PM)
Average temperature yesterday: 75 °F

Past Weeks' High & Low Weather Summary

 TemperatureHumidityPressure
High93 °F (Sep 12, 3:56 PM)94% (Sep 8, 5:04 AM)30.20 "Hg (Sep 8, 5:04 AM)
Low66 °F (Sep 21, 6:56 AM)40% (Sep 21, 3:56 PM)29.86 "Hg (Sep 17, 4:56 PM)
Average78 °F79%30.03 "Hg
* Reported Sep 8 1:56 AM — Sep 23 1:56 AM, Charleston, Weather by CustomWeather, © 2014

Note: Actual official high and low records may vary slightly from our data, if they occured in-between our weather recording intervals... More about our weather records

Advertising

Charleston weather history for previous 24 hours

 ConditionsComfort  
Time TempWeatherWind HumidityBarometerVisibility
1:56 AM
Sep 23
69 °FPassing clouds.8 mph87%30.09 "Hg10 mi
12:56 AM69 °FPassing clouds.7 mph90%30.10 "Hg10 mi
11:56 PM
Sep 22
69 °FPartly cloudy.6 mph90%30.11 "Hg10 mi
10:56 PM69 °FPassing clouds.7 mph90%30.10 "Hg10 mi
9:56 PM70 °FPartly cloudy.5 mph90%30.08 "Hg10 mi
8:56 PM70 °FMostly cloudy.6 mph87%30.06 "Hg10 mi
7:56 PM70 °FLight rain. Low clouds.8 mph90%30.06 "Hg7 mi
6:56 PM70 °FRain. Fog.3 mph87%30.06 "Hg5 mi
5:56 PM69 °FRain. Fog.17 mph90%30.01 "Hg5 mi
4:56 PM75 °FPartly sunny.20 mph71%30.00 "Hg10 mi
3:56 PM86 °FBroken clouds.14 mph55%29.94 "Hg10 mi
2:56 PM88 °FScattered clouds.6 mph48%29.97 "Hg10 mi
1:56 PM87 °FScattered clouds.5 mph51%29.98 "Hg10 mi
12:56 PM84 °FScattered clouds.6 mph57%30.00 "Hg10 mi
11:56 AM83 °FPassing clouds.3 mph59%30.01 "Hg10 mi
10:56 AM82 °FPassing clouds.7 mph58%30.02 "Hg10 mi
9:56 AM78 °FBroken clouds.9 mph62%30.02 "Hg10 mi
8:56 AM76 °FPassing clouds.7 mph64%30.01 "Hg10 mi
7:56 AM72 °FPassing clouds.6 mph71%29.99 "Hg10 mi
6:56 AM70 °FPassing clouds.3 mph79%29.98 "Hg10 mi
5:56 AM71 °FClear.5 mph76%29.96 "Hg10 mi
4:56 AM73 °FClear.7 mph74%29.94 "Hg10 mi
3:56 AM74 °FClear.9 mph76%29.94 "Hg10 mi
Weather by CustomWeather, © 2014

See weather overviewHow to use our weather pages